Weather in Elenite

Bulgaria     42°42′26″N   27°48′36″E
temp.,
°C
wind,
m/s
gust,
m/s
humid.,
%
clouds,
%
prec.,
mm/h
press.,
hPa
HPBL,
m
26 february, fri
fri2623:00+6sw12830 0.0 103324
02:00+5wsw12850 0.0 103223
05:00+6w12870 0.0 103124
08:00+7w12830 0.0 103026
11:00+12ssw22640 0.0 1029304
14:00+14sse22610 0.0 1027410
17:00+10s23760 0.0 1026130
20:00+8ssw12820 0.0 102527
27 february, sat
sat2723:00+7ssw22830 0.0 102428
02:00+7wsw12830 0.0 102222
05:00+7wsw22870 0.0 102126
08:00+8w22850 0.0 102041
11:00+15w13600 0.0 1019385
14:00+16nnw34510 0.0 10181051
17:00+14ne24630 0.0 1018205
20:00+9ne6128248 0.0 1020507
28 february, sun
sun2823:00+8ne81283100 0.3 1022734
02:00+6n7118394 1.3 1024868
05:00+6n5972100 0.3 1025842
08:00+5n6107499 0.3 1026810
11:00+8nne7105753 0.0 10271382
14:00+8n686155 0.1 10271288
17:00+7n576549 0.1 1027946
20:00+6nnw267565 0.1 1029313
1 march, mon
mon123:00+4n247819 0.0 1029116
02:00+3n237925 0.0 103078
05:00+2nnw35780 0.0 1029172
08:00+3nnw477141 0.0 1029580
11:00+5n585888 0.0 10301056
14:00+7nne575680 0.1 10301343
17:00+5nne6869100 0.1 10301112
20:00+4nne477898 0.4 1031687
2 march, tue
tue223:00+4n478495 0.1 1032651
02:00+3n489198 0.2 1032487
05:00+3n4794100 0.1 1032470
08:00+3nne4791100 0.3 1033521
11:00+4nne688197 0.1 1034773
14:00+6nne686895 0.3 10341155
17:00+5nne5875100 0.3 1034982
20:00+3n487684 0.3 1034436